格洛纳斯-711 COSMOS 1413 [GLONASS]

导读 | 星芒AI

COSMOS 1413 是一颗俄罗斯 GLONASS 卫星,于 1982 年 12 月 28 日发射,用于全球导航卫星系统。该卫星属于 GLONASS-M 系列,旨在提供高精度的定位、导航和时间同步服务。它运行在中地球轨道,设计寿命约为 5 至 7 年。COSMOS 1413 在其服役期间为俄罗斯及国际用户提供了关键的导航支持,是 GLONASS 系统的重要组成部分。

基本信息
目录编号:
13603
目录名称:
COSMOS 1413 (GLONASS)
国际标识:
1982-100A
轨道中心:
EARTH
卫星名称:
格洛纳斯-711
卫星全名:
格洛纳斯-711 COSMOS 1413 [GLONASS]
卫星状态:
在轨 (已飞行15726 天)
发射日期:
1982-10-12 UTC
国别 :
俄罗斯(独联体) (CIS)
星等 :
--
轨道信息
数据来源 国际轨道数据
星历时间: 2025-10-31T17:01:10+0800
20小时前
查看轨道信息
半长轴: 25447.2km
偏心率: 0.000691
轨道倾角: 64.801°
近地点辐角 126.492°
升交点赤经 74.800°
平近点角 240.858°
近地点: 19051.48km
远地点: 19086.65km
周期: 673.317分钟
每日圈数: 2.138665
详细信息
平衡模式:
三轴稳定
覆盖范围:
全球
运营商:
列舍特涅夫卫星信息系统
运营商所在国:
俄罗斯
制造商(研发单位):
列舍特涅夫卫星信息系统
制造商所在国:
俄罗斯
使用方式:
暂无
卫星简介
格洛纳斯(GLONASS )是苏联/俄罗斯研制卫星导航系统。标准配置为24颗卫星,其中18颗卫星就能保证该系统为俄罗斯境内用户提供全部服务。该卫星已退役。
2D轨道图
3D轨道图
轨道高度分析图
轨道倾角分析图
轨道综合分析图
查看轨道综合分析图